This is the latest recevied weather packets stored in our database for station/object K5YNC. If no packets are shown the sender has not sent any weather packets the latest 10 day(s).
| Time | Temp. | Humidity | Pressure | Rain* | Wind** | Luminosity | Snow |
|---|---|---|---|---|---|---|---|
| 1777473523 | 13.89° C | 79% | 1019.8 hPa | 0 mm | - | 90 W/m² | - |
| 1777473219 | 13.89° C | 78% | 1019.7 hPa | 0 mm | - | 83 W/m² | - |
| 1777472915 | 13.89° C | 78% | 1019.8 hPa | 0 mm | - | 86 W/m² | - |
| 1777472612 | 13.89° C | 78% | 1019.5 hPa | 0 mm | - | 93 W/m² | - |
| 1777472309 | 13.89° C | 78% | 1019.4 hPa | 0 mm | - | 138 W/m² | - |
| 1777472006 | 13.89° C | 78% | 1019.4 hPa | 0 mm | - | 161 W/m² | - |
| 1777471701 | 13.89° C | 78% | 1019.3 hPa | 0 mm | - | 129 W/m² | - |
| 1777471398 | 13.89° C | 78% | 1019.3 hPa | 0 mm | - | 106 W/m² | - |
| 1777471095 | 13.89° C | 78% | 1019.2 hPa | 0 mm | - | 91 W/m² | - |
| 1777470792 | 13.89° C | 78% | 1018.9 hPa | 0 mm | - | 86 W/m² | - |
| 1777470489 | 13.89° C | 78% | 1018.9 hPa | 0 mm | - | 84 W/m² | - |
| 1777470184 | 13.89° C | 79% | 1018.7 hPa | 0 mm | - | 78 W/m² | - |
| 1777469881 | 13.89° C | 78% | 1018.5 hPa | 0 mm | - | 61 W/m² | - |
| 1777469577 | 13.89° C | 78% | 1018.8 hPa | 0 mm | - | 54 W/m² | - |
| 1777469271 | 13.89° C | 78% | 1019 hPa | 0 mm | - | 51 W/m² | - |
| 1777468967 | 13.89° C | 78% | 1019 hPa | 0 mm | - | 45 W/m² | - |
| 1777468663 | 13.89° C | 79% | 1018.9 hPa | 0 mm | - | 60 W/m² | - |
| 1777468360 | 13.89° C | 79% | 1018.8 hPa | 0 mm | - | 54 W/m² | - |
| 1777468056 | 13.89° C | 80% | 1018.5 hPa | 0 mm | - | 44 W/m² | - |
| 1777467752 | 13.89° C | 80% | 1018.4 hPa | 0 mm | - | 52 W/m² | - |
| 1777467447 | 13.89° C | 80% | 1018.4 hPa | 0 mm | - | 47 W/m² | - |
| 1777467143 | 13.33° C | 80% | 1018.4 hPa | 0 mm | - | 40 W/m² | - |
| 1777466840 | 13.33° C | 81% | 1018.4 hPa | 0 mm | - | 26 W/m² | - |
| 1777466538 | 13.33° C | 81% | 1018.7 hPa | 0 mm | - | 12 W/m² | - |
| 1777466234 | 13.33° C | 81% | 1018.5 hPa | 0 mm | - | 12 W/m² | - |
* Rain latest hour (hover to see other rain measurements)
** Current wind speed in m/s (hover to see current wind gust speed)